Location: Ohmer (historical)
(38.0096°N, 122.0227°W)
Time: 03:29:08
(UTC+00:00)

Cosmos 2227 Rocket - Pass Details

Date: 14 February 2026
Orbit: 836 x 845 km, 71.0° (Epoch: 7 March)

Event Time Altitude Azimuth Distance (km) Brightness Sun altitude
Exits shadow 14:02:22 11° 308° (NW) 2,403 4.0 -11.8°
Maximum altitude 14:06:28 23° 259° (W) 1,720 3.3 -11.0°
Drops below altitude 10° 14:10:48 10° 209° (SSW) 2,458 4.4 -10.1°
Sets 14:13:42 0° 195° (SSW) 3,387 5.3 -9.6°
